Location: Boiro
(42.6475°N, 8.8834°W)
Time: 16:08:28
(UTC+02:00)

Explorer 7 - Pass Details

Date: 28 June 2022
Orbit: 482 x 668 km, 50.3° (Epoch: 15 August)

Event Time Altitude Azimuth Distance (km) Brightness Sun altitude
Exits shadow 01:19:26 21° 89° (E) 1,482 8.8 -21.6°
Drops below altitude 10° 01:21:16 10° 74° (ENE) 2,055 9.7 -21.7°
Sets 01:23:45 0° 65° (ENE) 2,946 10.6 -21.8°
